Location: Bo?a Wola
(50.4192°N, 19.7966°E)
Time: 11:52:56
(UTC+00:00)

COBE Rocket - Pass Details

Date: 15 June 2024
Orbit: 678 x 776 km, 97.1° (Epoch: 15 July)

Event Time Altitude Azimuth Distance (km) Brightness Sun altitude
Rises 00:18:39 0° 12° (NNE) 3,250 9.1 -13.2°
Reaches altitude 10° 00:20:57 10° 13° (NNE) 2,327 7.9 -13.0°
Maximum altitude 00:26:08 87° 104° (ESE) 785 4.0 -12.7°
Enters shadow 00:30:13 17° 193° (SSW) 1,897 5.4 -12.4°
